Theta_e
344 345 346 347 346 347 347 347 348 349 350 350 350 350 351 351 351 350 350 350 351 351 350 350 351 351 351 351 351 351 351 350 349 350 352 352 351 351 349 348 348 348 348 349 349 349 349 348 348 347 347 346 345 344 343 343 344 345 345 345 344 344 344 344 344 345 345 345 345 346 346 345 344 345
340 341 342 343 345 346 346 346 346 347 348 349 349 348 349 350 351 350 351 351 349 349 351 350 350 350 350 351 351 350 350 350 351 351 351 351 351 350 349 348 348 348 348 349 349 349 349 348 349 348 348 347 346 345 345 344 343 344 345 346 345 344 345 345 346 347 347 347 347 346 345 344 344 345
342 343 342 342 342 344 345 345 344 344 344 345 346 345 345 348 349 349 350 351 348 347 350 351 350 350 350 350 350 350 350 350 351 352 352 352 351 349 349 349 348 348 348 349 349 349 349 349 349 348 348 348 348 347 345 344 343 343 344 345 345 345 345 346 347 348 348 348 347 346 344 344 344 345
342 343 342 342 342 342 344 345 344 343 343 343 343 343 344 345 347 347 348 349 347 345 348 349 349 350 351 349 349 349 350 350 351 351 351 352 351 350 350 350 348 348 348 349 349 350 349 350 349 349 349 348 348 348 347 346 344 343 343 344 345 345 345 346 347 348 348 347 347 346 344 343 343 344
340 340 339 341 342 341 342 343 342 342 342 342 342 343 344 344 345 345 346 347 346 343 344 346 346 348 349 350 350 350 350 350 350 350 351 351 350 350 351 350 349 348 348 348 349 349 350 349 349 349 349 349 349 348 348 347 345 344 343 344 344 345 345 347 348 347 347 347 347 346 344 344 345 344
340 339 339 340 341 341 340 338 338 338 338 338 340 340 341 341 343 344 345 346 346 345 344 346 347 347 348 349 350 350 350 350 350 350 349 349 350 350 351 350 349 349 348 347 347 348 349 349 349 349 349 349 349 348 347 347 346 345 344 344 344 345 346 347 348 347 348 347 346 345 345 344 344 344
339 339 339 339 340 341 341 340 339 339 338 338 338 338 338 339 341 343 344 345 346 345 345 346 348 349 349 349 349 350 350 350 349 349 349 350 351 351 350 350 349 349 349 348 346 347 348 347 349 349 349 349 349 348 347 347 347 346 346 345 345 345 345 346 347 347 347 347 346 345 343 343 343 344
339 339 339 339 340 340 340 341 341 342 341 341 339 339 339 339 339 340 340 341 343 344 344 344 346 348 348 348 348 348 349 350 350 350 350 350 351 351 350 349 348 348 349 349 348 347 347 346 348 349 349 349 349 348 348 348 348 348 347 347 346 346 346 346 346 346 347 347 346 345 344 343 344 346
338 338 339 338 339 339 340 341 341 341 341 341 340 340 341 341 340 340 340 341 342 343 344 343 344 346 346 347 348 348 348 349 349 350 349 348 348 347 346 345 346 346 348 349 349 349 348 348 348 348 348 348 348 348 348 348 348 348 348 348 348 347 347 347 347 347 347 347 347 346 346 346 347 348
336 337 337 337 336 337 339 341 341 341 341 341 341 341 341 341 342 342 342 342 342 343 343 343 344 343 343 346 347 346 347 347 348 348 348 347 346 346 345 346 346 346 347 348 348 349 350 351 349 348 347 347 348 348 348 348 347 348 347 348 348 348 348 348 348 347 347 348 348 348 348 348 348 348
330 332 334 336 337 338 339 340 341 341 341 341 342 342 342 342 342 342 342 342 342 343 342 343 343 344 343 345 346 345 346 347 347 348 348 348 347 348 349 349 349 349 349 349 349 349 350 350 349 350 349 348 347 348 348 348 348 348 347 348 348 348 348 348 348 348 347 347 348 348 348 348 348 348
323 322 324 329 333 337 339 340 341 341 341 342 342 342 342 341 341 341 341 342 342 342 343 343 344 344 344 346 345 345 346 346 346 347 347 347 347 348 350 350 350 351 349 348 347 347 347 348 348 349 350 349 348 347 348 348 348 348 347 348 348 348 348 348 348 348 347 347 347 347 347 347 348 347
322 318 321 325 328 331 335 337 338 338 337 338 339 339 339 338 338 338 338 338 338 339 341 342 342 342 343 344 345 345 345 346 346 346 346 348 348 348 349 350 350 351 349 347 346 344 345 348 349 350 349 349 348 346 347 347 347 348 348 347 347 348 348 348 348 348 347 347 347 347 347 347 347 348
325 321 325 331 332 331 332 332 333 335 335 335 336 336 336 336 336 337 336 335 334 335 337 337 337 339 340 340 340 343 345 345 346 346 347 348 349 348 349 349 349 349 349 349 347 345 345 347 349 350 349 349 347 346 346 347 347 347 347 346 346 347 347 347 347 347 347 347 347 347 347 347 348 349
328 325 327 332 334 334 335 334 334 335 335 336 336 337 337 337 338 337 336 336 335 335 336 336 337 338 338 335 335 338 342 344 345 346 346 347 347 348 349 348 347 346 347 347 347 346 345 345 345 348 349 350 349 346 344 345 346 346 346 346 345 346 346 347 348 348 347 347 348 347 348 347 348 349
329 329 328 329 328 330 333 335 335 335 335 335 335 336 336 336 336 335 335 336 337 336 336 337 337 338 338 336 334 334 337 339 340 341 344 345 346 346 347 347 345 345 344 345 345 344 345 345 344 344 347 350 350 348 346 345 345 345 346 346 346 345 345 347 347 348 348 347 347 347 347 347 348 349
329 329 329 329 329 328 330 332 333 333 333 333 333 334 335 335 335 335 335 336 337 337 337 337 337 336 336 337 335 334 335 336 337 337 338 342 344 344 344 343 343 343 343 343 344 344 343 344 344 343 344 345 346 346 345 345 345 345 344 345 345 345 344 344 346 348 348 348 348 348 347 347 348 348
328 328 329 330 331 331 331 331 331 331 332 333 333 334 334 334 334 333 333 334 335 335 336 337 338 338 338 338 337 336 336 337 338 338 338 339 340 340 341 341 340 341 341 342 343 344 342 341 343 343 342 343 343 342 342 343 344 344 344 344 345 345 343 343 344 346 348 348 348 348 347 347 347 347
326 327 329 331 332 332 333 333 333 333 333 334 334 334 333 333 332 331 330 330 331 332 334 336 337 337 338 339 338 338 338 339 340 341 340 339 340 341 341 341 339 340 340 340 341 343 341 341 342 341 339 340 341 341 341 342 343 343 344 345 345 345 344 342 342 344 345 346 347 348 348 347 347 347
325 327 330 331 331 332 332 333 333 333 334 334 334 334 333 333 332 331 330 330 330 330 330 332 332 332 333 335 336 337 337 339 340 341 341 341 342 343 342 342 340 340 340 339 340 342 341 341 342 341 340 340 341 340 341 342 342 342 343 344 345 345 345 343 342 342 343 345 346 348 348 348 348 348
326 328 329 330 330 332 333 333 333 333 334 334 334 334 333 333 333 332 331 330 330 330 330 331 331 331 330 331 334 336 336 336 337 338 339 340 341 341 340 340 340 340 340 339 340 342 342 341 342 344 343 344 344 344 342 342 341 342 342 343 344 344 344 344 344 343 342 343 345 348 348 348 349 348
328 328 329 329 331 332 333 333 332 333 333 333 333 333 333 333 333 332 332 331 331 331 331 331 332 332 330 329 331 335 336 336 336 336 336 336 338 339 339 339 339 339 339 338 338 341 342 341 341 342 342 342 342 342 342 342 342 343 342 341 342 343 344 344 344 344 343 342 345 347 348 348 348 349
328 329 329 329 330 331 332 332 332 332 332 332 332 332 332 332 332 332 331 332 332 331 331 331 331 330 328 327 329 333 335 336 337 337 337 336 336 337 337 337 337 337 338 336 335 336 336 335 336 337 339 340 339 337 339 341 342 342 342 341 340 341 343 345 345 345 344 343 345 347 347 348 348 348
329 328 329 329 330 330 330 330 331 331 331 331 331 331 331 331 331 331 331 331 332 332 332 331 331 330 328 326 326 328 331 333 335 336 336 336 337 336 337 336 336 335 335 334 334 336 335 334 336 337 339 342 341 340 341 343 342 342 343 342 341 341 342 344 344 345 344 343 345 347 348 348 348 348
328 328 328 329 329 329 328 328 328 328 329 330 330 330 330 330 330 330 331 331 331 331 331 331 330 329 329 327 326 325 326 328 331 334 336 336 336 337 336 336 336 336 334 333 334 337 338 338 340 341 342 343 344 343 343 344 343 342 341 343 343 342 342 343 343 343 344 344 344 346 348 347 347 347
327 327 328 328 328 328 328 328 328 328 328 329 329 329 328 328 328 328 328 329 329 329 329 329 329 329 329 328 327 326 326 326 328 332 336 338 337 336 336 337 337 337 336 335 334 337 338 339 339 341 342 343 343 342 342 344 342 341 341 342 342 342 341 342 343 343 344 344 344 345 346 347 347 347
327 327 327 327 327 327 327 327 327 327 327 327 327 326 325 324 324 324 324 325 326 327 328 328 329 329 329 328 328 327 327 326 325 327 332 337 338 338 337 338 338 338 338 336 336 338 341 341 340 341 342 343 343 342 342 343 342 342 342 341 340 340 341 342 343 344 344 344 345 346 347 348 348 348
326 326 326 326 326 326 325 325 325 325 324 324 324 324 323 323 323 322 322 322 322 323 325 326 327 327 328 328 328 328 327 327 326 326 327 330 335 337 338 338 339 339 338 338 338 339 340 340 340 341 341 342 342 342 342 342 342 342 342 341 340 338 340 342 343 343 343 345 346 346 346 348 348 349
325 324 324 324 323 323 322 323 322 322 322 323 323 322 323 322 322 322 321 321 320 321 323 325 326 326 326 326 326 327 327 327 327 328 328 327 329 334 336 338 338 338 338 338 337 337 338 339 339 339 340 340 340 341 342 342 342 341 341 342 341 339 340 342 343 344 344 344 344 345 345 347 348 349
322 322 322 322 321 321 321 321 320 321 321 321 322 322 322 321 322 321 321 321 321 321 322 324 325 325 324 324 323 325 327 329 329 330 330 329 327 328 331 335 336 335 335 335 335 336 337 337 337 337 338 338 338 339 340 340 341 341 340 341 342 341 341 342 343 344 345 345 344 344 345 346 346 348
321 321 321 321 321 321 320 320 320 320 320 321 321 321 321 321 321 321 321 322 323 322 322 323 323 324 324 325 325 326 328 331 330 330 331 331 330 327 328 331 333 334 333 332 333 334 336 337 336 335 336 337 337 338 339 340 341 341 340 339 341 342 341 342 343 344 346 346 346 346 346 346 346 347
322 321 321 321 321 321 320 320 320 319 320 320 321 321 321 321 321 322 322 323 324 325 325 324 324 325 326 326 326 327 329 330 331 330 330 331 332 331 330 331 333 334 333 332 332 334 335 336 336 335 335 336 337 338 339 340 341 341 340 339 340 340 340 341 342 344 345 346 347 347 347 347 347 347
322 322 321 321 321 321 320 319 319 319 320 321 321 322 322 322 322 323 324 325 326 327 327 327 327 327 327 326 326 327 329 330 331 331 331 331 332 332 332 332 332 332 332 333 335 335 335 337 338 338 338 339 339 339 339 340 341 341 341 340 341 340 340 340 342 344 345 345 346 346 348 347 347 347
322 322 322 322 322 321 319 319 319 319 320 321 321 322 322 322 323 323 324 325 326 327 328 328 328 329 329 329 329 329 330 331 331 332 331 331 332 332 333 333 333 331 330 332 335 336 337 339 339 340 340 341 340 340 340 340 341 341 341 341 341 341 340 340 341 344 345 344 345 346 347 347 347 347
322 322 321 321 321 320 319 319 319 320 321 321 321 322 322 323 323 324 324 325 326 327 328 328 329 329 330 330 331 331 330 331 331 332 332 332 332 332 333 334 333 331 330 332 334 335 336 337 338 340 341 341 341 341 341 341 341 340 339 340 341 341 340 340 342 343 344 345 346 347 347 346 346 346
321 320 320 320 320 319 319 320 320 321 321 321 322 322 322 324 324 325 326 326 327 328 329 329 329 330 330 331 331 331 331 331 332 332 333 333 332 333 334 334 334 333 333 333 334 335 336 337 338 339 341 341 342 342 340 339 340 340 340 341 342 341 341 341 342 342 343 345 345 344 345 346 346 346
319 320 320 320 320 320 320 321 321 321 322 322 322 323 323 324 325 326 327 327 328 328 329 329 329 329 330 331 331 331 331 331 332 332 332 333 333 334 334 334 335 335 336 336 335 336 338 339 339 340 341 341 342 342 340 339 340 341 341 341 341 341 341 342 343 343 343 344 344 344 344 344 345 346
319 319 320 321 321 321 321 322 322 322 323 323 323 324 325 325 326 327 328 328 328 328 329 329 329 329 330 330 331 331 331 331 331 331 331 332 333 334 334 334 334 334 336 336 337 336 337 339 339 340 341 341 341 341 341 341 342 342 341 342 341 341 342 343 344 344 344 344 345 346 346 345 345 346
319 319 320 321 321 322 322 323 323 323 324 324 325 325 326 326 327 327 328 329 329 329 329 329 329 330 330 330 330 331 331 331 330 330 331 331 332 333 333 333 333 333 334 336 336 336 337 338 339 339 339 339 339 340 340 342 343 343 342 342 342 342 343 344 345 345 345 344 345 346 346 346 345 344
318 318 319 320 321 321 322 322 323 323 324 325 325 326 326 326 327 328 328 328 329 329 329 329 330 330 330 330 330 330 330 330 330 330 330 330 331 331 331 332 332 333 333 334 335 336 337 338 338 339 339 339 339 339 339 340 341 342 342 343 343 342 343 344 344 344 344 344 344 345 345 345 344 342
318 318 318 319 320 320 321 322 323 323 324 324 325 325 326 327 327 327 328 328 328 329 330 330 330 330 330 330 330 330 330 330 330 330 330 330 331 331 331 331 332 333 333 334 335 336 336 337 338 339 339 338 338 338 340 341 341 342 342 342 342 341 342 342 343 343 344 344 344 344 344 344 343 341
317 317 318 318 319 320 321 322 322 323 324 324 324 324 325 325 326 327 328 329 330 330 331 331 331 331 331 330 330 330 330 330 330 330 331 330 331 332 331 331 331 332 333 334 334 335 336 337 337 338 339 339 338 339 340 341 341 341 341 340 340 340 340 340 340 341 342 342 342 343 342 340 339 337
316 317 317 318 318 319 320 321 322 323 323 323 323 324 324 325 327 328 328 329 330 331 332 332 331 331 331 331 331 331 331 331 330 331 331 331 331 331 331 331 332 333 333 333 333 334 335 335 336 337 339 339 339 340 341 341 340 340 339 338 337 337 338 338 337 338 339 339 339 340 341 340 338 336
315 316 316 317 318 320 321 322 323 323 323 324 324 325 326 326 327 328 329 329 330 331 331 331 331 331 331 332 332 331 331 331 331 331 331 331 331 331 331 332 333 334 334 334 334 334 334 334 335 337 339 339 339 340 340 340 339 338 335 334 333 332 333 335 335 334 334 334 334 335 336 338 338 336
316 317 319 320 321 322 323 324 324 324 325 325 326 327 328 329 328 329 329 330 331 331 331 330 331 332 332 332 332 332 332 332 332 332 332 332 332 332 332 333 333 334 334 334 336 336 336 335 336 337 338 339 339 338 337 336 337 335 331 329 328 327 328 329 330 330 329 328 327 329 330 330 331 331
Wind_Speed
14 15 14 15 16 16 15 15 15 16 17 16 16 16 16 17 18 19 18 16 16 15 14 16 18 17 18 20 22 23 24 24 25 27 28 28 27 25 23 23 23 23 22 22 22 22 22 22 22 23 24 24 24 24 24 24 24 23 24 24 23 23 23 22 21 21 20 20 20 20 19 20 20 20
15 15 15 15 16 16 15 16 15 16 18 18 16 15 16 17 17 19 18 17 16 15 14 16 17 16 16 18 20 22 24 24 24 25 27 27 26 25 24 23 23 23 22 21 21 21 22 22 22 22 22 22 23 23 23 23 23 23 23 23 22 22 21 21 21 21 20 20 19 19 19 19 19 20
14 15 16 16 17 17 16 17 18 18 19 20 18 16 17 17 18 19 19 19 19 16 14 15 16 16 17 18 19 20 21 22 23 25 26 26 25 24 24 24 23 23 22 21 21 21 21 22 21 21 21 21 21 22 22 22 23 23 23 22 22 21 21 21 21 21 20 20 19 19 19 19 19 19
14 14 16 17 17 17 17 17 18 17 18 20 20 20 19 18 18 19 19 21 23 19 16 16 17 18 18 19 18 19 19 20 22 24 25 26 25 24 25 25 24 23 23 23 22 22 21 21 21 20 20 20 20 21 21 21 22 22 22 22 22 21 21 21 22 21 20 20 19 19 19 19 19 19
14 15 15 16 17 17 17 17 17 17 17 19 20 20 21 21 21 21 20 22 24 22 19 18 18 17 17 19 19 19 20 22 22 22 23 24 25 25 26 27 26 26 25 24 23 23 23 22 22 21 20 20 20 20 20 20 20 21 21 22 22 22 21 21 21 21 20 20 19 19 20 20 20 19
15 16 16 17 17 17 17 17 17 18 18 19 19 19 20 22 24 23 22 21 22 23 21 19 18 17 16 18 20 20 21 22 22 23 23 23 25 25 26 28 28 28 27 26 25 24 24 23 23 22 21 21 21 20 19 19 19 19 20 21 21 21 21 21 22 22 21 21 20 20 21 21 20 19
16 16 16 17 17 17 18 19 19 19 19 19 19 20 20 21 22 21 20 20 21 23 24 22 20 18 16 16 19 20 20 20 21 23 24 24 24 26 27 27 27 28 29 28 27 26 25 24 23 23 22 22 21 21 20 19 18 19 19 20 21 21 21 21 22 22 22 22 21 21 21 21 20 20
17 18 18 17 16 17 18 19 19 19 19 18 19 19 20 20 21 21 21 21 24 26 26 24 22 20 19 18 19 21 20 19 20 22 24 24 25 27 27 27 28 29 29 28 28 27 26 25 24 23 22 23 22 21 21 20 19 19 19 19 20 20 21 22 22 22 23 22 22 22 22 21 21 21
17 18 19 19 18 18 19 19 19 18 19 20 20 20 19 19 21 22 21 20 21 23 24 24 23 22 21 20 20 21 21 20 21 22 22 23 25 26 26 26 28 29 28 28 28 28 27 27 26 24 23 23 23 23 22 21 20 20 19 19 19 19 20 21 22 22 22 22 22 22 22 22 22 21
18 18 19 20 20 20 20 20 19 19 20 21 22 21 21 21 21 22 22 20 19 19 20 22 23 24 23 21 21 21 21 21 22 22 22 21 22 23 23 24 26 27 27 28 28 28 28 28 27 25 24 24 24 25 24 23 22 21 20 19 19 19 19 20 21 22 22 22 22 22 22 22 22 21
21 21 21 21 21 20 20 20 21 21 21 21 21 21 21 22 23 23 23 23 22 21 21 21 21 22 22 21 21 20 20 21 22 23 23 22 21 22 23 24 24 25 25 25 26 27 28 28 28 26 26 25 26 26 25 25 23 22 21 20 19 19 19 19 20 21 21 22 22 22 22 22 21 20
25 23 23 23 23 22 20 20 21 21 21 20 20 20 20 22 23 23 23 24 24 24 23 22 22 22 21 20 19 19 19 21 22 23 23 23 22 21 23 23 24 26 25 23 24 26 25 27 28 29 28 28 27 27 27 26 25 24 23 22 21 20 20 20 20 20 21 21 21 22 22 21 21 20
28 24 22 22 23 23 22 22 22 22 22 23 23 24 24 25 24 24 25 25 25 25 24 24 24 24 24 23 21 20 20 22 22 22 22 23 22 21 22 23 23 24 24 24 24 24 23 24 27 30 31 30 29 30 29 28 27 26 25 24 23 22 21 21 20 20 20 21 21 21 22 21 21 20
28 24 21 21 21 22 22 23 23 23 24 24 25 26 26 26 25 25 26 27 27 26 25 26 25 25 25 26 24 22 21 21 21 21 22 22 22 23 25 25 22 21 22 23 23 22 22 24 26 29 31 31 30 31 31 30 29 28 27 26 24 23 23 22 21 20 20 20 21 22 22 22 22 21
26 25 22 21 21 20 20 22 22 23 23 24 24 24 25 25 25 25 26 26 27 26 26 25 24 24 26 27 26 24 23 22 21 22 22 22 21 22 23 22 21 19 19 21 22 21 21 23 26 28 30 30 30 30 31 31 30 30 29 28 27 25 24 23 22 21 21 20 21 22 22 22 22 22
26 27 26 24 23 22 21 21 22 22 23 24 24 23 24 25 25 25 26 27 26 27 27 26 25 25 25 26 27 27 25 25 25 25 25 25 24 22 21 21 20 18 18 19 22 23 20 21 25 27 29 30 31 32 33 32 32 32 32 31 29 28 26 25 24 23 22 21 21 21 22 23 23 22
26 27 27 26 25 23 22 22 22 23 23 24 24 24 23 24 25 26 26 26 26 26 27 28 29 28 27 28 28 27 26 26 27 27 28 27 26 24 23 23 22 20 19 20 23 25 22 20 23 26 26 28 31 33 34 34 34 35 34 34 33 31 29 27 26 25 24 23 22 22 22 23 23 22
27 27 26 26 26 25 24 23 23 24 24 25 26 25 25 25 25 25 25 25 25 26 26 27 28 27 27 28 28 26 25 25 26 27 28 27 28 28 27 26 25 23 21 21 23 26 25 22 23 25 25 24 26 29 30 32 33 34 35 35 34 32 31 29 28 27 26 25 24 24 23 23 23 23
28 27 26 25 26 27 26 25 25 25 26 27 27 27 27 26 26 26 26 25 26 27 27 27 27 27 26 25 25 25 25 25 25 27 28 28 28 27 26 26 27 26 23 22 24 28 28 24 25 26 25 24 25 26 26 28 28 30 32 33 33 33 32 31 29 28 28 27 26 26 25 24 23 23
28 26 26 26 27 28 27 26 26 26 26 26 27 28 29 29 28 27 27 26 26 27 29 29 30 30 29 27 26 25 24 25 25 26 28 28 27 25 25 26 28 28 25 22 23 27 28 24 24 25 25 25 27 26 25 25 25 25 27 30 32 33 34 34 31 30 29 28 27 27 26 24 23 23
26 25 25 26 26 26 26 26 26 26 26 27 28 29 30 30 29 29 28 28 28 27 27 27 28 29 30 30 29 27 25 25 25 27 29 30 28 27 28 28 26 26 26 22 20 22 25 24 23 24 23 24 26 26 26 26 24 24 25 27 29 32 34 35 34 32 31 30 29 28 27 25 24 24
24 24 24 24 24 24 24 24 25 25 26 27 28 29 29 29 30 29 28 29 29 28 27 26 26 27 29 30 30 29 27 26 26 28 31 31 29 29 29 28 25 25 26 24 20 21 23 24 24 25 25 26 27 28 28 27 26 25 25 25 27 29 31 32 33 33 32 31 29 29 28 26 25 25
24 23 24 23 23 23 23 23 24 24 26 27 28 29 30 30 30 29 29 28 28 28 28 28 28 28 28 29 30 30 28 26 25 27 29 30 31 31 31 29 29 29 30 28 24 25 28 28 28 28 28 29 30 29 27 27 26 26 25 26 26 27 29 30 31 32 33 32 30 30 29 28 26 26
24 24 24 24 23 24 24 25 25 26 26 27 28 29 29 30 30 30 30 30 30 30 31 31 32 33 32 31 32 32 32 30 27 27 27 28 29 30 31 32 33 34 34 30 25 25 26 27 27 27 28 29 29 27 25 25 25 24 24 24 25 25 27 29 31 32 32 32 31 30 30 29 27 27
25 24 24 24 25 27 28 29 29 30 30 30 30 30 30 32 32 33 33 34 34 35 36 36 36 36 36 35 33 33 33 33 31 28 27 26 26 27 30 33 35 36 36 32 27 25 25 25 24 24 26 29 29 29 27 26 26 26 24 23 24 24 25 27 30 31 32 32 32 32 31 30 28 27
25 25 26 27 27 28 29 30 31 32 32 32 32 33 34 35 36 38 39 39 39 39 39 40 40 39 38 36 35 33 32 32 32 29 26 24 24 25 28 30 33 35 34 31 28 27 28 29 28 26 27 29 30 31 30 29 28 28 26 25 24 24 24 25 27 29 31 32 32 32 32 31 28 28
27 28 28 28 29 29 31 32 33 35 36 37 39 39 40 41 41 41 43 43 43 43 42 42 41 41 40 38 37 36 34 33 33 32 29 27 24 24 26 27 29 31 30 28 27 28 29 29 29 29 29 29 30 31 31 30 28 27 28 27 26 25 25 25 26 28 30 31 31 32 33 32 30 29
29 29 29 30 32 34 36 37 38 40 41 42 42 42 41 41 40 40 42 43 43 43 43 44 44 44 42 40 39 38 36 35 34 33 33 32 29 26 26 27 27 27 27 26 27 28 30 30 31 32 31 31 31 32 33 32 29 28 28 28 27 26 25 24 25 27 29 31 31 32 33 34 33 31
33 34 35 35 36 38 40 41 42 43 44 44 43 42 41 41 41 42 43 43 42 41 40 41 43 44 43 41 40 38 36 35 35 33 32 33 33 31 28 28 27 26 26 26 27 27 28 30 32 32 32 32 33 34 34 33 31 30 29 29 28 27 26 25 25 25 28 30 31 31 32 33 33 32
34 35 36 37 39 40 41 42 44 46 46 44 43 42 39 37 36 37 38 38 37 37 37 37 37 39 40 39 38 36 34 33 33 32 31 32 34 34 32 30 30 29 28 27 27 28 28 29 30 31 32 33 33 34 35 34 33 32 31 30 28 27 27 27 26 25 26 29 30 30 30 30 31 33
34 36 38 40 41 42 43 43 44 44 41 38 35 33 30 29 30 32 31 31 31 32 33 35 36 36 35 34 34 32 30 30 30 29 29 30 32 33 33 33 32 32 30 29 28 28 28 28 28 30 31 32 32 33 33 33 33 32 31 31 29 27 26 27 27 26 25 26 29 30 30 29 30 31
39 40 41 42 43 44 45 44 40 36 33 31 29 27 25 25 26 27 26 26 26 27 27 29 32 33 33 32 32 31 29 29 28 26 27 29 31 31 32 32 31 30 30 30 29 27 27 27 27 29 31 31 32 32 32 32 33 32 31 31 30 30 29 28 29 28 26 26 28 30 30 30 30 30
43 42 43 43 43 43 42 38 32 28 27 27 26 25 24 23 24 24 24 25 26 27 28 28 30 31 30 30 31 31 31 29 27 26 27 29 30 30 31 32 31 30 29 29 28 27 26 25 24 26 28 29 30 31 31 32 33 32 31 30 30 30 30 29 29 29 28 28 30 31 31 31 31 31
41 41 41 41 40 39 35 30 26 25 25 26 27 26 24 23 23 23 24 24 25 27 30 31 32 31 30 29 29 30 31 29 26 26 27 28 28 30 31 31 31 31 30 30 29 27 25 24 24 24 25 28 30 30 30 32 34 33 31 30 29 30 30 29 27 28 29 29 31 31 31 32 33 33
37 37 36 35 33 31 27 24 23 23 24 26 27 26 24 24 23 21 20 21 23 26 28 30 31 31 31 30 30 30 30 29 27 27 26 26 27 29 31 32 33 32 31 30 29 27 26 26 27 26 26 27 29 30 29 30 32 33 32 31 29 30 31 30 28 28 29 30 30 31 31 32 34 34
31 30 29 27 25 22 21 21 22 23 23 23 23 22 23 23 21 19 19 21 23 24 26 26 27 29 30 31 32 32 30 29 28 27 27 27 27 27 29 31 32 32 32 31 29 27 25 26 27 28 27 26 28 30 30 28 29 31 31 30 28 28 29 29 28 29 30 31 32 34 33 33 35 35
25 24 23 22 21 20 21 23 23 22 21 20 19 21 23 24 22 21 21 23 25 26 26 26 26 27 28 29 30 31 30 28 27 27 27 28 28 28 28 29 29 29 30 30 28 26 25 25 26 28 27 26 27 30 30 27 27 28 28 28 28 27 28 28 28 28 29 30 32 35 36 35 36 36
23 22 21 21 20 20 21 22 22 21 21 22 22 23 24 24 24 22 22 23 25 25 25 25 26 27 27 28 28 29 28 28 27 28 28 28 28 28 28 29 30 29 28 28 28 28 28 28 27 27 27 27 28 29 26 23 23 24 24 25 26 26 26 28 28 28 27 27 30 33 34 35 36 36
24 23 22 21 21 21 21 21 22 22 22 23 23 24 25 25 25 25 24 24 25 25 25 26 26 26 26 27 27 28 29 29 29 30 30 29 29 29 28 29 29 27 26 27 30 31 31 30 28 27 28 29 29 27 23 20 20 21 21 22 23 22 22 25 28 28 27 26 29 32 32 32 33 34
24 23 21 20 21 21 22 22 22 22 22 23 24 25 26 26 26 27 26 26 26 26 27 27 26 26 26 25 26 27 29 30 30 31 31 30 30 30 29 28 27 26 26 27 29 30 29 29 29 28 27 26 25 25 24 23 22 22 22 23 23 21 20 21 24 26 26 27 29 30 31 32 32 30
23 22 21 19 19 20 20 20 21 21 22 23 24 25 26 26 27 28 27 27 28 28 27 25 24 25 25 25 26 28 29 29 29 30 30 29 29 29 29 27 26 26 26 27 29 28 27 27 28 27 24 22 22 24 25 24 22 22 22 23 23 23 22 21 22 24 25 26 28 28 29 31 33 31
22 22 21 19 18 18 18 18 19 20 21 22 24 25 26 27 28 28 26 25 25 24 24 24 23 22 23 23 24 27 28 29 29 28 27 27 27 28 27 27 27 27 27 27 27 26 25 23 23 21 21 21 23 25 25 23 21 21 22 22 22 22 22 20 20 21 23 24 25 27 29 29 30 31
21 20 20 19 19 19 19 19 19 20 21 22 23 25 26 26 25 24 23 22 21 21 22 23 22 21 22 23 24 25 26 28 28 28 27 26 26 27 28 29 28 27 25 25 25 25 24 22 19 17 18 19 21 23 24 23 21 20 19 18 17 17 16 15 14 15 19 22 25 29 31 31 30 31
19 19 19 19 18 18 18 17 17 17 18 20 22 23 23 24 24 23 23 23 22 21 21 21 20 20 20 22 23 24 25 26 27 27 26 25 25 26 27 28 27 25 23 23 23 23 23 21 20 19 19 19 20 22 23 23 20 17 14 12 10 8 9 10 10 11 16 20 24 27 30 32 32 32
18 16 15 15 14 14 13 13 14 15 16 18 19 19 19 20 22 23 24 23 22 22 22 21 20 20 19 19 20 21 22 24 25 25 25 24 25 26 26 26 26 26 24 22 21 21 21 21 21 21 21 21 21 22 21 20 17 14 12 9 7 5 5 6 9 13 14 13 12 18 24 26 27 31
Wind_Direction
281 284 286 286 286 287 287 286 282 280 279 277 272 269 267 268 271 274 274 271 267 265 265 265 267 271 270 262 254 248 247 249 246 243 243 246 252 256 258 258 259 259 258 257 257 257 258 260 261 263 263 262 262 262 261 260 259 257 256 256 256 255 255 255 254 253 253 255 257 258 260 259 257 257
284 283 282 280 280 281 282 280 277 275 276 276 275 275 270 267 267 267 268 272 271 266 264 264 266 271 272 269 261 250 246 249 249 245 245 247 249 252 255 256 254 255 255 255 256 256 257 259 261 263 264 264 263 262 261 260 259 257 255 254 255 254 253 251 251 251 252 254 256 257 258 257 256 258
285 284 282 279 278 279 280 279 277 275 277 280 284 284 277 270 267 267 269 274 275 272 267 268 271 271 270 268 264 256 251 250 251 249 249 251 252 252 254 255 252 252 253 252 253 255 256 258 260 263 264 264 264 262 261 260 259 257 255 253 253 252 251 249 250 250 252 254 256 258 258 257 258 260
285 282 282 283 282 284 286 287 286 283 283 286 288 289 285 277 271 270 269 270 275 278 273 271 272 272 274 272 264 261 259 256 255 254 251 254 257 256 254 255 255 254 252 250 251 253 255 258 260 262 263 263 263 263 261 260 258 257 256 253 252 251 249 248 248 249 250 251 254 257 259 258 259 261
291 287 285 284 283 282 283 282 281 280 278 278 281 284 283 281 278 275 270 270 275 279 277 275 273 271 272 272 269 267 264 260 259 259 255 253 257 257 256 258 258 257 254 251 250 251 253 256 259 261 263 263 262 261 260 259 257 255 255 254 252 251 249 247 247 248 249 250 251 254 255 257 258 260
294 293 292 290 286 282 279 277 276 277 277 274 273 274 275 278 280 278 274 272 274 276 277 277 277 275 271 268 268 269 267 261 258 259 259 257 256 256 257 258 258 257 257 255 253 251 250 253 257 260 262 263 262 259 257 255 254 252 251 251 251 251 249 247 246 247 248 249 250 250 252 254 256 257
287 286 287 288 288 286 282 278 273 272 273 272 270 270 269 272 276 278 277 274 274 277 280 279 276 275 274 271 273 275 272 267 261 260 261 261 258 256 255 257 258 258 258 257 256 253 250 250 253 255 258 261 261 258 255 252 251 251 249 248 248 248 248 247 246 246 246 247 248 249 250 251 252 253
282 281 282 281 281 282 282 282 279 276 274 273 273 273 271 271 273 276 278 277 275 275 277 279 276 273 272 271 272 275 274 272 267 264 263 261 259 258 259 260 261 261 259 257 257 254 253 252 249 249 255 258 259 258 256 253 251 250 249 248 247 246 246 246 245 245 245 245 246 247 247 248 250 252
283 282 282 279 274 272 274 277 278 278 276 273 274 275 274 274 276 276 275 278 281 277 276 279 279 278 277 273 269 270 273 272 269 267 265 263 262 261 262 263 262 262 260 259 258 256 254 253 250 248 251 254 256 257 257 255 252 249 249 248 248 248 247 247 246 245 245 245 245 246 246 248 250 254
286 283 282 282 278 274 273 273 273 273 271 270 272 274 274 275 278 277 273 276 284 285 283 284 284 285 284 279 273 272 272 272 272 272 270 267 264 264 264 264 263 264 263 262 262 259 255 253 252 250 249 250 252 254 256 256 253 249 248 248 250 250 250 250 249 248 248 247 247 247 248 249 252 255
291 285 282 282 282 278 276 274 274 273 272 272 272 272 272 272 274 275 272 272 275 276 277 280 282 286 288 284 279 276 272 270 268 270 271 268 264 262 264 265 265 265 265 263 261 259 258 257 256 254 252 251 250 250 252 254 253 250 248 248 250 250 251 251 250 250 250 250 250 250 250 251 252 253
296 290 283 280 279 278 277 276 276 275 273 274 273 271 272 274 275 276 275 274 275 274 273 273 272 274 276 278 279 279 276 272 267 267 270 270 266 263 264 265 264 264 265 263 258 256 258 259 259 257 255 253 250 247 248 250 251 251 249 248 248 249 250 250 249 249 250 250 250 250 249 250 250 251
299 295 290 286 283 280 279 280 281 281 279 279 278 277 277 278 279 279 277 277 278 277 276 275 275 273 271 272 276 276 274 273 272 271 271 269 266 264 264 264 264 265 266 265 261 258 258 259 259 257 255 253 250 246 245 247 249 250 250 251 251 251 251 251 250 250 249 249 249 248 248 248 249 251
300 298 296 294 292 289 284 282 284 286 287 284 282 280 279 278 279 279 278 278 279 279 278 278 278 277 276 276 276 274 272 273 274 274 273 269 265 264 265 266 267 269 267 265 266 265 261 260 258 255 254 253 249 244 243 245 248 250 251 251 253 254 254 253 252 251 250 250 248 247 248 248 249 252
298 298 296 291 289 288 286 283 281 281 282 282 281 281 279 278 279 279 279 278 277 278 278 277 276 275 274 276 276 274 273 272 273 274 275 273 270 267 269 271 272 270 268 266 267 266 262 260 257 252 250 250 249 248 247 247 248 249 249 250 252 253 254 254 252 251 250 249 249 248 248 248 250 251
295 297 297 292 286 281 279 280 280 279 279 280 281 282 281 280 280 279 279 277 275 275 275 274 272 270 271 273 273 273 273 273 273 274 274 276 276 274 275 276 276 275 274 272 269 267 264 263 260 255 249 248 251 253 254 254 253 249 247 248 250 251 252 252 251 251 249 248 248 248 248 248 249 250
291 293 296 296 293 288 283 282 280 279 280 282 283 284 283 282 280 280 279 277 275 275 275 273 271 270 271 271 270 270 271 273 276 276 275 275 275 274 275 277 277 275 273 272 271 270 268 266 265 262 256 254 255 256 256 256 255 254 251 248 248 249 249 249 248 249 249 248 246 246 247 248 249 250
290 290 292 293 294 294 292 289 285 281 281 282 282 281 280 279 279 279 280 280 279 278 277 274 272 271 271 270 270 269 269 269 272 274 274 272 271 272 274 276 276 271 267 268 271 272 269 267 268 268 265 262 262 260 259 257 255 255 254 251 251 250 248 245 245 246 247 247 246 245 245 248 250 252
292 292 292 291 290 290 290 288 286 285 284 284 283 282 280 279 279 280 281 282 282 281 279 277 276 276 275 274 273 272 269 265 264 266 269 270 271 270 269 271 272 270 267 266 266 269 271 270 270 271 270 269 268 264 262 260 257 255 254 253 253 252 247 243 242 244 246 246 246 244 243 246 250 253
292 290 288 287 286 286 286 285 285 286 286 286 284 282 281 280 280 281 282 281 280 280 280 280 281 282 281 279 277 273 269 266 263 264 266 267 267 267 267 269 270 267 265 264 263 266 269 270 272 273 273 272 272 269 266 264 263 261 258 255 254 252 249 246 245 245 245 246 246 244 243 244 248 252
293 289 287 287 287 286 285 285 285 285 284 283 282 282 281 281 280 280 280 281 282 282 281 281 282 281 279 277 276 273 269 266 265 264 264 263 265 268 270 271 272 269 266 264 261 263 267 270 271 272 271 269 269 270 270 268 268 266 262 258 255 253 252 251 249 246 245 246 245 244 243 244 245 249
293 291 290 289 289 289 289 290 289 287 285 284 283 284 284 284 283 282 282 283 282 281 280 278 275 274 274 275 275 273 271 268 264 262 262 262 262 265 267 267 269 269 267 263 256 255 262 267 269 270 271 270 268 268 269 270 270 268 265 260 257 255 253 252 250 247 245 245 245 243 242 242 243 246
294 292 291 291 291 291 293 294 293 290 288 287 285 284 284 283 283 283 283 281 280 278 277 275 273 271 272 273 272 271 271 270 267 264 263 262 260 259 260 260 259 261 263 263 260 257 261 264 265 266 268 268 270 271 270 269 269 268 267 264 260 257 255 254 251 248 245 244 244 243 241 240 241 244
297 295 294 294 293 290 291 291 289 287 286 285 285 284 284 283 282 280 279 277 276 275 275 275 276 275 275 273 271 270 269 270 271 268 266 263 260 258 258 257 256 255 258 261 261 260 263 265 263 263 263 263 267 269 268 267 268 268 267 266 264 260 255 254 252 250 246 243 242 242 241 239 239 242
296 295 294 291 289 288 288 287 284 283 281 281 281 281 281 281 281 280 278 276 275 275 275 275 276 278 279 278 275 273 271 270 272 272 269 264 260 258 258 258 257 256 256 258 257 254 256 257 257 258 258 257 260 264 265 266 266 266 267 268 269 267 262 258 255 252 248 244 241 240 240 239 239 242
294 293 291 289 288 287 285 284 283 282 281 281 281 280 280 281 282 281 279 277 276 275 275 275 276 276 277 278 277 276 272 269 268 269 268 266 261 260 260 260 259 258 258 258 256 254 253 252 251 252 254 256 259 264 266 266 265 266 267 267 269 271 269 265 258 253 249 246 242 241 241 239 239 241
293 292 291 290 288 285 283 282 281 280 280 280 279 279 281 282 282 282 282 279 276 274 273 273 274 274 274 274 275 275 274 271 268 265 264 266 266 265 265 263 261 260 260 257 253 251 250 249 248 249 250 255 260 263 264 263 263 265 268 269 270 271 271 268 263 256 252 248 245 243 242 239 238 239
296 296 294 290 286 284 284 283 283 283 282 282 281 282 284 284 284 284 284 283 281 276 273 271 271 271 272 273 274 275 275 274 272 268 264 263 265 266 266 265 263 261 259 256 252 251 250 250 250 249 249 252 257 260 262 262 262 264 267 270 271 271 270 269 266 261 256 251 247 244 242 240 237 236
298 297 294 291 289 289 290 290 290 290 288 287 287 288 289 288 287 285 285 285 282 277 272 271 271 270 271 273 273 275 276 276 274 271 264 259 259 262 264 265 263 260 257 255 255 255 254 252 250 250 252 253 255 258 261 262 262 262 263 267 270 272 272 270 269 268 263 257 253 249 246 243 241 239
299 296 294 292 292 293 294 294 293 292 291 290 290 290 291 290 287 285 283 282 278 271 265 266 270 271 272 274 274 275 276 275 272 270 265 258 255 256 259 263 264 262 259 258 258 259 257 253 250 251 253 255 255 256 259 262 263 262 262 264 266 267 269 270 270 269 266 262 260 257 252 248 245 244
299 294 292 292 292 292 294 295 295 295 295 294 293 293 293 292 287 285 283 280 276 270 265 264 267 269 271 273 272 273 273 271 268 267 264 259 254 252 253 257 262 264 263 262 261 259 258 256 254 254 254 254 255 256 257 259 260 260 261 262 262 262 265 268 269 267 265 265 263 259 255 251 248 246
300 295 293 292 291 292 294 296 296 295 293 293 294 294 292 290 289 289 286 280 276 276 276 273 270 268 266 266 267 269 270 269 267 266 263 258 254 251 249 251 255 259 263 264 263 260 259 257 256 255 254 254 254 255 256 256 256 258 259 259 259 261 263 264 265 265 262 261 261 259 256 253 251 249
299 296 295 293 293 295 297 296 294 291 290 291 292 288 284 284 287 289 287 281 278 279 281 279 276 271 266 264 265 267 268 266 262 263 263 259 254 250 249 250 252 256 260 262 261 262 261 258 254 253 253 253 254 254 255 255 255 256 258 258 258 260 260 260 262 262 258 257 259 260 257 254 253 252
297 295 295 295 296 298 298 293 289 288 288 288 289 285 281 282 285 285 281 277 276 277 278 277 277 274 268 264 265 268 268 264 258 258 261 261 256 251 249 250 253 256 257 258 258 259 258 255 254 254 252 251 252 251 252 255 256 257 258 258 258 260 262 262 262 260 258 258 259 259 257 257 256 254
297 297 296 297 301 302 298 294 292 292 291 291 291 288 285 286 288 286 282 279 278 278 278 276 275 272 267 265 268 272 272 268 262 258 257 256 255 254 252 252 255 257 257 255 255 256 255 254 254 252 249 250 251 251 252 254 256 258 259 258 257 259 261 262 262 261 260 256 255 256 259 259 258 254
301 301 300 301 305 305 302 302 303 301 298 296 293 291 291 293 293 288 284 284 282 282 283 282 276 272 270 269 271 274 273 269 264 261 258 256 254 254 253 252 253 255 256 254 254 254 255 254 250 247 245 244 246 249 253 254 254 255 256 257 257 258 259 260 260 260 258 254 253 257 260 259 256 254
311 310 307 305 304 301 300 304 307 304 300 297 294 293 295 297 298 295 290 286 285 285 288 287 282 278 275 273 271 270 268 265 262 261 261 258 255 255 256 255 255 254 254 253 253 253 251 248 244 242 240 239 241 247 253 255 253 253 254 256 258 259 259 259 258 257 257 256 256 258 260 260 258 256
314 312 309 305 303 299 299 303 305 302 300 299 299 299 301 302 304 303 298 295 294 294 293 291 287 284 279 274 270 266 263 262 261 260 258 256 254 254 256 258 259 259 257 255 256 255 252 249 246 242 239 240 242 246 249 250 253 256 256 258 260 261 259 257 255 254 255 256 255 254 255 256 256 255
312 310 306 302 301 300 299 300 302 303 304 305 304 304 305 305 306 305 303 303 302 302 301 297 292 286 281 276 271 267 265 265 265 262 258 255 255 255 255 256 258 259 258 259 261 259 253 250 248 244 242 243 246 247 247 247 251 257 259 258 260 263 263 258 254 252 253 256 256 255 253 250 246 242
310 307 304 299 296 296 297 299 301 304 305 304 303 303 304 305 306 305 303 303 302 300 301 300 294 286 279 273 270 270 269 267 266 263 259 257 255 255 255 256 258 258 256 258 261 259 254 250 247 244 245 248 251 253 254 252 250 251 252 252 256 261 263 260 257 255 255 258 259 258 253 246 236 226
309 306 303 299 296 295 297 300 302 304 303 301 302 304 305 305 305 303 302 302 301 299 299 299 295 287 278 270 268 270 271 268 264 261 259 259 258 256 255 254 255 255 253 251 253 256 258 257 251 245 245 249 250 250 250 249 245 244 248 253 259 262 262 261 261 260 259 260 261 256 246 237 228 220
307 304 303 302 299 295 294 294 294 296 299 300 301 301 299 298 299 301 301 300 299 300 302 301 297 289 283 278 274 271 269 267 263 259 256 255 255 256 256 255 252 250 249 251 257 260 263 265 261 253 248 247 245 243 241 240 239 244 251 258 263 267 270 270 267 261 258 255 250 242 231 220 211 206
309 304 301 298 296 293 289 288 287 289 294 298 298 297 298 301 304 306 308 308 308 309 309 308 303 294 287 284 280 273 267 265 263 261 258 254 252 254 256 254 250 247 248 256 262 263 262 264 265 261 254 248 244 242 239 235 235 239 244 252 260 269 277 280 273 261 248 236 229 228 226 221 213 206
309 301 297 295 295 296 296 297 297 296 296 298 298 301 308 313 316 319 325 328 328 326 321 316 312 303 292 284 279 272 265 261 260 260 258 254 254 256 254 248 246 247 252 256 257 256 257 258 255 251 248 243 239 236 231 226 223 223 223 230 244 260 272 275 264 240 222 213 210 211 212 215 217 211
313 308 305 304 304 305 305 306 307 305 304 306 310 319 329 332 332 337 343 343 340 337 333 325 317 310 301 290 280 271 263 259 258 256 254 254 256 258 255 249 247 249 252 251 249 249 252 252 250 248 244 235 227 221 213 204 201 200 196 190 186 189 203 219 215 199 184 178 197 208 202 199 198 191